When you browse on this site, cookies collect data to enhance your experience and personalize the content and advertising you see.
Visit our Privacy Policy to learn more. By continuing to use the site, you agree to this use of cookies and data.

Stündliche Wetter Aylesbury

Heute, 2 Juli, Donnerstag

Zeit Temperatur Niederschläge Wind Luftdruck Luftfeuchtigkeit
00:00 +10°C° 0 mm 3 m/S 748 mmHg 94%
01:00 +10°C° 0 mm 3 m/S 748 mmHg 95%
02:00 +10°C° 0 mm 3 m/S 748 mmHg 96%
03:00 +9°C° 0 mm 3 m/S 747 mmHg 97%
04:00 +10°C° 0 mm 4 m/S 748 mmHg 95%
05:00 +11°C° 0 mm 4 m/S 748 mmHg 93%
06:00 +12°C° 0 mm 5 m/S 748 mmHg 92%
07:00 +13°C° 0 mm 5 m/S 748 mmHg 88%
08:00 +14°C° 0 mm 5 m/S 749 mmHg 85%
09:00 +15°C° 0 mm 4 m/S 749 mmHg 81%
10:00 +17°C° 0.4 mm 4 m/S 749 mmHg 79%
11:00 +18°C° 0.4 mm 4 m/S 750 mmHg 78%
12:00 +19°C° 0.4 mm 4 m/S 750 mmHg 76%
13:00 +19°C° 0.6 mm 4 m/S 750 mmHg 75%
14:00 +19°C° 0.6 mm 4 m/S 750 mmHg 75%
15:00 +20°C° 0.6 mm 4 m/S 750 mmHg 74%
16:00 +19°C° 0.4 mm 4 m/S 751 mmHg 77%
17:00 +19°C° 0.4 mm 3 m/S 751 mmHg 80%
18:00 +18°C° 0.4 mm 3 m/S 751 mmHg 83%
19:00 +17°C° 0.1 mm 3 m/S 752 mmHg 87%
20:00 +15°C° 0.1 mm 2 m/S 752 mmHg 90%
21:00 +14°C° 0.1 mm 2 m/S 753 mmHg 94%
22:00 +14°C° 0 mm 2 m/S 753 mmHg 94%
23:00 +12°C° 0 mm 3 m/S 753 mmHg 95%

Morgen, 3 Juli, Freitag

Zeit Temperatur Niederschläge Wind Luftdruck Luftfeuchtigkeit
00:00 +12°C° 0 mm 3 m/S 753 mmHg 96%
01:00 +11°C° 0 mm 3 m/S 753 mmHg 96%
02:00 +11°C° 0 mm 3 m/S 753 mmHg 96%
03:00 +10°C° 0 mm 3 m/S 753 mmHg 96%
04:00 +11°C° 0 mm 4 m/S 753 mmHg 95%
05:00 +11°C° 0 mm 4 m/S 753 mmHg 93%
06:00 +12°C° 0 mm 5 m/S 753 mmHg 92%
07:00 +13°C° 0 mm 5 m/S 753 mmHg 89%
08:00 +14°C° 0 mm 6 m/S 753 mmHg 85%
09:00 +15°C° 0 mm 6 m/S 753 mmHg 81%
10:00 +15°C° 0 mm 7 m/S 753 mmHg 79%
11:00 +16°C° 0 mm 7 m/S 753 mmHg 76%
12:00 +17°C° 0 mm 7 m/S 753 mmHg 74%
13:00 +16°C° 0 mm 7 m/S 753 mmHg 75%
14:00 +16°C° 0 mm 7 m/S 753 mmHg 77%
15:00 +16°C° 0 mm 8 m/S 753 mmHg 78%
16:00 +16°C° 0 mm 7 m/S 753 mmHg 80%
17:00 +16°C° 0 mm 7 m/S 752 mmHg 81%
18:00 +16°C° 0 mm 7 m/S 752 mmHg 82%
19:00 +16°C° 0 mm 7 m/S 752 mmHg 83%
20:00 +15°C° 0 mm 7 m/S 753 mmHg 85%
21:00 +15°C° 0 mm 7 m/S 753 mmHg 86%
22:00 +15°C° 0 mm 7 m/S 752 mmHg 87%
23:00 +15°C° 0 mm 6 m/S 752 mmHg 89%

übermorgen, 4 Juli, Samstag

Zeit Temperatur Niederschläge Wind Luftdruck Luftfeuchtigkeit
00:00 +15°C° 0 mm 6 m/S 752 mmHg 90%
01:00 +15°C° 0 mm 6 m/S 752 mmHg 91%
02:00 +15°C° 0 mm 6 m/S 752 mmHg 91%
03:00 +15°C° 0 mm 6 m/S 751 mmHg 92%
04:00 +16°C° 0 mm 7 m/S 751 mmHg 92%
05:00 +16°C° 0 mm 7 m/S 751 mmHg 92%
06:00 +16°C° 0 mm 7 m/S 751 mmHg 91%
07:00 +16°C° 0.2 mm 7 m/S 751 mmHg 91%
08:00 +17°C° 0.2 mm 7 m/S 751 mmHg 91%
09:00 +17°C° 0.2 mm 7 m/S 751 mmHg 91%
10:00 +17°C° 0.3 mm 7 m/S 751 mmHg 92%
11:00 +17°C° 0.3 mm 7 m/S 751 mmHg 93%
12:00 +17°C° 0.3 mm 7 m/S 751 mmHg 94%
13:00 +17°C° 0 mm 7 m/S 751 mmHg 92%
14:00 +18°C° 0 mm 7 m/S 751 mmHg 90%
15:00 +20°C° 0 mm 7 m/S 751 mmHg 89%
16:00 +19°C° 0 mm 6 m/S 751 mmHg 90%
17:00 +19°C° 0 mm 6 m/S 750 mmHg 91%
18:00 +17°C° 0 mm 6 m/S 750 mmHg 92%
19:00 +17°C° 0 mm 6 m/S 751 mmHg 92%
20:00 +17°C° 0 mm 6 m/S 751 mmHg 91%
21:00 +17°C° 0 mm 6 m/S 751 mmHg 91%
22:00 +17°C° 0 mm 6 m/S 751 mmHg 91%
23:00 +17°C° 0 mm 7 m/S 750 mmHg 90%

5 Juli, Sonntag

Zeit Temperatur Niederschläge Wind Luftdruck Luftfeuchtigkeit
00:00 +17°C° 0 mm 7 m/S 750 mmHg 89%
01:00 +17°C° 0 mm 7 m/S 750 mmHg 88%
02:00 +17°C° 0 mm 7 m/S 750 mmHg 86%
03:00 +17°C° 0 mm 7 m/S 750 mmHg 85%
04:00 +17°C° 0 mm 8 m/S 750 mmHg 85%
05:00 +17°C° 0 mm 8 m/S 749 mmHg 86%
06:00 +17°C° 0 mm 9 m/S 749 mmHg 86%
07:00 +17°C° 0.1 mm 8 m/S 749 mmHg 87%
08:00 +17°C° 0.1 mm 8 m/S 750 mmHg 88%
09:00 +18°C° 0.1 mm 8 m/S 750 mmHg 88%
10:00 +18°C° 0.1 mm 8 m/S 750 mmHg 87%
11:00 +18°C° 0.1 mm 9 m/S 750 mmHg 86%
12:00 +18°C° 0.1 mm 9 m/S 750 mmHg 84%
13:00 +18°C° 0.1 mm 9 m/S 750 mmHg 83%
14:00 +18°C° 0.1 mm 8 m/S 750 mmHg 81%
15:00 +20°C° 0.1 mm 8 m/S 750 mmHg 80%
16:00 +18°C° 0.1 mm 8 m/S 750 mmHg 78%
17:00 +18°C° 0.1 mm 8 m/S 750 mmHg 76%
18:00 +18°C° 0.1 mm 8 m/S 750 mmHg 74%
19:00 +16°C° 0 mm 7 m/S 750 mmHg 77%
20:00 +15°C° 0 mm 7 m/S 751 mmHg 80%
21:00 +13°C° 0 mm 6 m/S 751 mmHg 83%
22:00 +11°C° 0 mm 6 m/S 751 mmHg 83%
23:00 +12°C° 0 mm 5 m/S 751 mmHg 84%

6 Juli, Montag

Zeit Temperatur Niederschläge Wind Luftdruck Luftfeuchtigkeit
00:00 +10°C° 0 mm 5 m/S 751 mmHg 85%
01:00 +10°C° 0 mm 5 m/S 751 mmHg 85%
02:00 +9°C° 0 mm 5 m/S 752 mmHg 85%
03:00 +9°C° 0 mm 5 m/S 752 mmHg 85%
04:00 +9°C° 0 mm 5 m/S 752 mmHg 84%
05:00 +9°C° 0 mm 6 m/S 752 mmHg 82%
06:00 +10°C° 0 mm 6 m/S 752 mmHg 81%
07:00 +11°C° 0 mm 7 m/S 753 mmHg 77%
08:00 +12°C° 0 mm 7 m/S 753 mmHg 73%
09:00 +14°C° 0 mm 7 m/S 753 mmHg 69%
10:00 +14°C° 0 mm 7 m/S 754 mmHg 67%
11:00 +15°C° 0 mm 7 m/S 754 mmHg 65%
12:00 +16°C° 0 mm 7 m/S 754 mmHg 64%
13:00 +16°C° 0.1 mm 7 m/S 755 mmHg 63%
14:00 +17°C° 0.1 mm 7 m/S 755 mmHg 62%
15:00 +17°C° 0.1 mm 7 m/S 755 mmHg 61%
16:00 +17°C° 0.1 mm 7 m/S 755 mmHg 64%
17:00 +16°C° 0.1 mm 6 m/S 756 mmHg 67%
18:00 +16°C° 0.1 mm 6 m/S 756 mmHg 69%
19:00 +14°C° 0 mm 5 m/S 756 mmHg 71%
20:00 +13°C° 0 mm 5 m/S 757 mmHg 73%
21:00 +11°C° 0 mm 4 m/S 758 mmHg 74%
22:00 +11°C° 0 mm 4 m/S 758 mmHg 76%
23:00 +10°C° 0 mm 4 m/S 758 mmHg 77%

7 Juli, Dienstag

Zeit Temperatur Niederschläge Wind Luftdruck Luftfeuchtigkeit
00:00 +8°C° 0 mm 4 m/S 759 mmHg 79%
01:00 +7°C° 0 mm 4 m/S 759 mmHg 82%
02:00 +7°C° 0 mm 4 m/S 759 mmHg 86%
03:00 +7°C° 0 mm 3 m/S 759 mmHg 90%
04:00 +7°C° 0 mm 4 m/S 759 mmHg 87%
05:00 +8°C° 0 mm 4 m/S 760 mmHg 85%
06:00 +8°C° 0 mm 4 m/S 760 mmHg 83%
07:00 +11°C° 0 mm 4 m/S 760 mmHg 78%
08:00 +13°C° 0 mm 4 m/S 760 mmHg 74%
09:00 +14°C° 0 mm 3 m/S 761 mmHg 70%
10:00 +16°C° 0 mm 3 m/S 761 mmHg 66%
11:00 +17°C° 0 mm 3 m/S 760 mmHg 62%
12:00 +18°C° 0 mm 2 m/S 760 mmHg 59%
13:00 +18°C° 0 mm 3 m/S 760 mmHg 58%
14:00 +18°C° 0 mm 3 m/S 760 mmHg 57%
15:00 +19°C° 0 mm 3 m/S 760 mmHg 57%
16:00 +18°C° 0 mm 3 m/S 760 mmHg 61%
17:00 +18°C° 0 mm 3 m/S 760 mmHg 65%
18:00 +17°C° 0 mm 3 m/S 760 mmHg 69%
19:00 +16°C° 0 mm 2 m/S 760 mmHg 74%
20:00 +14°C° 0 mm 2 m/S 760 mmHg 79%
21:00 +12°C° 0 mm 1 m/S 760 mmHg 84%
22:00 +12°C° 0 mm 1 m/S 760 mmHg 85%
23:00 +12°C° 0 mm 1 m/S 760 mmHg 85%
Mehr zeigen